XIWANG-1 (HOPE-1)

Last updated on Thu Apr 24 2025 00:03:01 GMT+0000 (Coordinated Universal Time)

1 36122U 09072B 25112.81420276 -.00000009 00000+0 92423-4 0 9996 2 36122 100.3449 69.6074 0008090 112.3784 247.8187 13.16423251737699
UTC large
Height (km)
Speed (km/s)
/
Latitude / Longitude
Inclination (degrees)
Orbital Period (minutes)
Azimuth
Elevation
Range (km)
Doppler Factor

Next 0 passes for location: London (51.5072 / 0.1276)

Sorry there are no passes over London.